Startseite
Über Mich
AHP4
Galerie
Sehschlangen
Tourenbuch
Bookmarks
Elektronik
Bewertung
Geschichten
[Tagesmessung] [Jahreswerte] [Information]

Messwerte vom 05.06.2022

Die letzten Messwerte von 23:58:47 Uhr:
KategorieMesswert
Temperatur [°C]17
Luftdruck [mBar]995
Sonneneinstrahlung0
Wind [km/h]0 aus
Niederschlag [l/m²]0
rel.Luftfeucht.96.6%
CO2 [ppm]493

Diagramme
Messwerte vom 05.06.2022
Tagesaggregation
KategorieMinimumMaximumSchnittSumme
Temperatur [°C]102818.9917
Luftdruck [mBar]99510061000.9896
Sonneneinstrahlung241129.7667
Wind [km/h]14
rF [%]40.596.669.63
Niederschlag [l/m²]0
CO2 [ppm]401729571.5
Einordnung alsVegetationstag
Sommertag

Messungen an benachbarten Tagen: Zur Jahresaggregation 2022
Tabelle aller Messwerte
UhrzeitTemperatur [°C]Luftdruck [mBar]SonneWind [km/h]RichtungRegen [l/m²]rF [%]CO2 [ppm]
00:01:45 15 1006 0 1 0 71.3 677
00:04:48 15 1006 0 1 NW 0 71.9 673
00:07:47 15 1005 0 2 NO 0 72 670
00:10:49 14 1006 0 3 NW 0 72 671
00:13:47 14 1006 0 2 NO 0 72.5 669
00:16:48 14 1006 0 1 NO 0 72.6 674
00:19:46 14 1006 0 0 N 0 72.9 669
00:22:46 14 1005 0 0 N 0 73.4 660
00:25:48 14 1006 0 0 NW 0 73.1 665
00:28:47 14 1006 0 0 O 0 73.5 668
00:31:46 14 1006 0 0 SO 0 74.1 659
00:34:45 14 1006 0 1 N 0 74.7 660
00:37:47 13 1006 0 2 NW 0 75.9 656
00:40:46 13 1006 0 3 NO 0 77 659
00:43:46 14 1006 0 3 O 0 77.5 664
00:46:45 14 1006 0 1 O 0 77.1 659
00:49:46 14 1006 0 3 NO 0 76.5 657
00:52:46 14 1006 0 3 NO 0 76.7 656
00:55:49 14 1006 0 2 N 0 76.9 653
00:58:45 14 1006 0 2 NO 0 77.1 651
01:01:47 14 1005 0 2 N 0 77.5 653
01:04:47 14 1006 0 1 N 0 77.8 659
01:07:46 14 1005 0 3 N 0 78.2 656
01:10:49 14 1006 0 1 NO 0 78.8 650
01:13:48 13 1006 0 2 N 0 79.1 644
01:16:51 13 1006 0 1 NO 0 79.3 647
01:19:47 13 1005 0 2 NO 0 79.5 651
01:22:49 13 1006 0 2 N 0 79.9 656
01:25:48 13 1005 0 0 N 0 80.4 656
01:28:48 13 1006 0 2 NO 0 80.7 658
01:31:48 13 1006 0 2 N 0 81.4 659
01:34:46 13 1005 0 3 N 0 81.6 659
01:37:48 13 1006 0 2 N 0 82.1 664
01:40:47 13 1006 0 1 N 0 82.2 674
01:43:48 12 1006 0 2 N 0 82.5 673
01:46:46 12 1006 0 1 NO 0 83.3 668
01:49:46 12 1006 0 1 N 0 83.8 668
01:52:48 12 1006 0 2 NW 0 84.2 670
01:55:45 12 1006 0 3 N 0 84.7 671
01:58:47 12 1006 0 2 N 0 84.7 674
02:01:49 13 1005 0 2 NO 0 84.5 679
02:04:50 13 1006 0 0 NO 0 84.2 679
02:07:48 13 1006 0 3 NO 0 84.1 685
02:10:48 12 1006 0 2 NO 0 84.8 691
02:13:46 12 1006 0 0 O 0 84.9 691
02:16:45 12 1006 0 0 O 0 84.1 693
02:19:47 12 1006 0 0 N 0 83.9 695
02:22:47 12 1006 0 0 SO 0 84 697
02:25:49 12 1005 0 0 SO 0 83.7 697
02:28:49 12 1006 0 0 SO 0 83.1 705
02:31:48 12 1006 0 0 O 0 83.6 706
02:34:48 12 1005 0 0 O 0 84 706
02:37:45 11 1005 0 0 O 0 84.4 700
02:40:47 11 1006 0 0 O 0 84.5 699
02:43:46 11 1005 0 0 O 0 85.6 702
02:46:47 11 1006 0 1 NO 0 86.7 700
02:49:49 11 1005 0 0 O 0 87 705
02:52:46 11 1006 0 0 NO 0 86.6 714
02:55:47 11 1006 0 1 NO 0 86.6 715
02:58:46 11 1005 0 2 NO 0 86.9 715
03:01:45 11 1006 0 1 NO 0 87 714
03:04:45 11 1005 0 0 N 0 87.3 707
03:07:46 11 1005 0 0 NO 0 87.2 709
03:10:47 11 1005 0 0 O 0 87.5 717
03:13:47 11 1005 0 0 NO 0 87.6 716
03:16:44 11 1006 0 1 N 0 87.4 711
03:19:46 11 1005 0 1 N 0 87.6 703
03:22:48 11 1006 0 1 N 0 87.8 701
03:25:46 11 1006 0 1 NO 0 87.6 703
03:28:47 11 1005 0 0 O 0 87.5 703
03:31:50 11 1005 0 0 NO 0 87.3 700
03:34:47 11 1004 0 0 SO 0 87.2 704
03:37:47 11 1005 0 0 NO 0 86.8 707
03:40:49 11 1005 0 0 S 0 86.8 708
03:43:48 11 1005 0 0 O 0 86.7 711
03:46:45 11 1005 0 0 O 0 86.8 705
03:49:48 11 1005 0 0 SO 0 87.5 706
03:52:49 11 1005 0 0 NO 0 87.8 706
03:55:46 11 1006 0 2 N 0 88.3 712
03:58:47 11 1004 0 1 NO 0 88.9 711
04:01:48 11 1005 0 0 N 0 88.2 709
04:04:48 11 1005 0 2 NO 0 87.9 708
04:07:48 11 1004 0 0 O 0 87.8 708
04:10:47 11 1005 0 0 O 0 87.5 714
04:13:47 11 1005 0 0 O 0 86.8 715
04:16:45 11 1005 0 0 O 0 86.5 709
04:19:47 11 1005 0 0 O 0 86.3 710
04:22:47 11 1005 0 1 NO 0 86 705
04:25:46 11 1004 3 0 N 0 85.4 705
04:28:46 11 1005 5 0 NO 0 85.1 703
04:31:48 11 1005 7 0 SO 0 84.7 705
04:34:48 10 1005 10 0 NO 0 85 706
04:37:47 10 1005 14 0 O 0 85.3 712
04:40:46 10 1005 19 0 O 0 85.7 711
04:43:50 10 1005 25 0 O 0 85.8 712
04:46:48 10 1005 32 0 O 0 86.1 717
04:49:49 10 1005 40 0 SO 0 86.1 714
04:52:45 10 1005 48 0 O 0 86.4 712
04:55:45 10 1004 57 0 O 0 87 712
04:58:49 10 1004 66 0 O 0 88 709
05:01:47 10 1004 75 0 O 0 88.4 704
05:04:46 10 1004 84 0 O 0 88 711
05:07:47 10 1005 92 0 O 0 87.4 706
05:10:48 10 1005 100 0 NW 0 87.3 712
05:13:48 10 1005 107 0 N 0 87.5 713
05:16:47 10 1005 114 1 N 0 87.7 714
05:19:47 10 1005 120 1 N 0 87.7 710
05:22:49 10 1005 126 0 NO 0 87.9 712
05:25:48 10 1004 131 0 SO 0 87.6 714
05:28:45 10 1005 136 1 NO 0 87.4 711
05:31:50 10 1006 140 0 O 0 86.8 712
05:34:47 10 1005 144 0 O 0 86.3 708
05:37:51 10 1005 147 0 NO 0 86.2 705
05:40:52 10 1005 150 0 NO 0 86.2 712
05:43:49 10 1005 153 0 SO 0 85.8 724
05:46:48 10 1005 156 0 SO 0 85.5 723
05:49:51 10 1005 158 0 SO 0 86 723
05:52:48 10 1004 160 0 NO 0 86.4 723
05:55:48 10 1004 162 1 NO 0 87.1 721
05:58:48 10 1004 164 0 NO 0 87.3 723
06:01:50 10 1005 165 1 NO 0 86.9 724
06:04:49 11 1005 167 0 SO 0 86.4 727
06:07:49 11 1004 168 0 NO 0 85.7 727
06:10:49 11 1005 170 0 NO 0 85.1 718
06:13:49 11 1004 171 0 SO 0 85.1 716
06:16:48 11 1005 171 0 N 0 85.1 715
06:19:48 11 1005 172 0 NO 0 84.8 708
06:22:47 11 1004 174 0 O 0 84.4 707
06:25:47 12 1005 174 0 O 0 83.5 705
06:28:49 12 1004 175 0 N 0 83 700
06:31:48 12 1004 176 0 O 0 82.7 703
06:34:49 12 1005 176 0 W 0 82.7 710
06:37:49 12 1004 177 0 SO 0 82.8 709
06:40:51 12 1003 178 0 SO 0 82.5 721
06:43:48 12 1004 179 0 NO 0 82.3 720
06:46:48 12 1003 180 0 O 0 82.3 718
06:49:52 12 1004 180 2 NO 0 82.5 720
06:52:49 12 1004 181 2 NO 0 82.2 723
06:55:47 13 1003 181 2 S 0 81.7 715
06:58:49 13 1004 182 2 SO 0 80.7 715
07:01:47 13 1004 182 0 SO 0 79.7 712
07:04:50 13 1003 183 0 O 0 79.6 708
07:07:49 13 1003 183 0 SO 0 79.3 710
07:10:48 14 1003 184 0 NO 0 79.2 710
07:13:48 14 1004 184 1 O 0 79.3 706
07:16:50 14 1004 185 2 NW 0 79.3 719
07:19:49 15 1003 185 2 NO 0 78.5 718
07:22:47 15 1003 186 4 SO 0 77.1 718
07:25:49 16 1004 186 0 O 0 76.3 716
07:28:49 17 1003 185 0 SO 0 75.4 717
07:31:49 18 1004 186 4 O 0 67.5 722
07:34:49 19 1003 185 6 NO 0 65.2 729
07:37:48 20 1004 185 6 N 0 61.2 725
07:40:48 20 1003 186 2 N 0 60.5 704
07:43:48 21 1004 186 1 O 0 59.8 687
07:46:50 21 1004 186 2 SO 0 57.1 673
07:49:48 21 1004 187 0 O 0 57 666
07:52:48 22 1004 159 1 NW 0 56.5 653
07:55:51 22 1003 188 3 SO 0 54.8 589
07:58:49 22 1004 188 1 SO 0 53.8 551
08:01:49 23 1002 188 0 S 0 53.9 563
08:04:48 23 1004 188 2 O 0 53.9 582
08:07:48 21 1003 188 3 O 0 53.3 588
08:10:50 20 1004 189 0 SO 0 57.2 589
08:13:49 19 1003 189 2 O 0 58.3 592
08:16:52 19 1004 190 2 SW 0 61.8 597
08:19:48 18 1003 191 6 O 0 62.7 606
08:22:50 18 1003 191 3 NO 0 63.7 618
08:25:48 18 1004 192 1 NO 0 63.5 618
08:28:49 18 1004 192 1 NW 0 64 621
08:31:49 18 1004 192 1 O 0 63.9 623
08:34:47 18 1003 191 3 NO 0 64.6 620
08:37:50 18 1004 191 0 SO 0 64.6 612
08:40:51 18 1003 190 12 SO 0 64.5 601
08:43:52 18 1003 190 0 SO 0 63.7 597
08:46:50 18 1003 190 2 NW 0 63.6 601
08:49:50 18 1003 190 12 S 0 63.5 618
08:52:48 18 1003 190 1 NO 0 63.9 629
08:55:48 19 1003 191 3 S 0 64.1 635
08:58:49 19 1003 191 9 SO 0 63.5 638
09:01:51 19 1003 192 1 SO 0 64.1 625
09:04:48 19 1003 192 2 W 0 64.3 623
09:07:50 19 1003 192 4 N 0 63.1 615
09:10:49 19 1002 192 2 S 0 62.9 611
09:13:48 19 1002 193 1 NO 0 62 600
09:16:47 19 1003 193 5 NO 0 62.2 600
09:19:47 19 1003 194 2 NO 0 62.4 591
09:22:47 19 1002 194 5 O 0 60.8 592
09:25:49 19 1003 195 2 NO 0 62 588
09:28:48 19 1003 196 1 SO 0 60.7 579
09:31:48 19 1002 197 1 S 0 60.6 577
09:34:48 20 1002 197 4 S 0 61.6 571
09:37:50 20 1002 198 3 NW 0 61.7 571
09:40:50 20 1002 198 5 NO 0 61.4 568
09:43:50 20 1003 198 6 SO 0 61.1 562
09:46:49 20 1002 199 1 O 0 61.9 562
09:49:52 20 1003 200 5 SO 0 61.2 556
09:52:49 20 1002 201 12 N 0 60.2 554
09:55:47 20 1003 203 3 O 0 59.1 553
09:58:50 20 1002 203 3 SO 0 59.6 556
10:01:50 20 1002 203 3 O 0 59.7 555
10:04:48 20 1003 204 6 O 0 59.7 551
10:07:48 21 1002 205 0 N 0 60.9 538
10:10:49 21 1003 208 2 NO 0 60.7 540
10:13:49 21 1003 209 1 NO 0 58.9 539
10:16:47 21 1002 212 2 O 0 58.6 542
10:19:50 21 1002 213 9 N 0 58.5 539
10:22:49 21 1002 214 4 SO 0 58.4 544
10:25:46 21 1002 214 7 O 0 57.8 544
10:28:48 21 1002 216 3 NO 0 58 544
10:31:49 21 1002 216 8 NO 0 56.3 536
10:34:48 21 1002 218 8 SO 0 56.4 533
10:37:46 21 1002 220 6 0 57.6 532
10:40:48 22 1002 221 4 SO 0 56.7 536
10:43:52 22 1002 222 1 SO 0 57.4 527
10:46:49 22 1002 223 2 SW 0 55.7 526
10:49:50 22 1002 223 3 SO 0 55.2 516
10:52:47 22 1002 223 3 S 0 55.1 521
10:55:49 22 1002 223 2 NO 0 55.3 515
10:58:47 23 1002 223 3 O 0 54 512
11:01:49 23 1002 222 1 NO 0 54.8 510
11:04:46 23 1002 220 1 O 0 55.3 504
11:07:48 23 1002 220 3 N 0 54.7 501
11:10:49 23 1002 220 4 O 0 54.5 501
11:13:48 23 1002 221 2 N 0 54.6 498
11:16:48 23 1002 197 6 N 0 53.3 498
11:19:49 23 1002 197 6 SW 0 52.7 492
11:22:47 23 1002 196 2 W 0 53.7 485
11:25:47 23 1002 197 5 W 0 54 471
11:28:50 23 1002 197 3 SO 0 54.2 462
11:31:46 23 1002 199 3 S 0 53.7 444
11:34:49 23 1002 199 9 O 0 54.1 424
11:37:48 23 1002 200 4 NO 0 52.9 416
11:40:47 23 1002 202 2 W 0 53.3 404
11:43:31 22 1002 203 4 O 0 45.9 407
11:46:48 24 1002 204 5 N 0 50.8 406
11:49:48 24 1002 205 4 O 0 51.3 407
11:52:47 24 1002 205 5 O 0 50.6 404
11:55:45 25 1002 204 4 NO 0 49.7 403
11:58:48 25 1002 226 4 NO 0 47.8 407
12:01:49 24 1002 225 7 SO 0 49.3 404
12:04:48 24 1002 225 5 O 0 48.6 404
12:07:47 24 1002 225 10 O 0 47.6 404
12:10:48 24 1001 223 3 O 0 47.6 405
12:13:48 24 1002 223 5 S 0 50 404
12:16:47 25 1002 222 5 O 0 50.7 404
12:19:50 26 1002 221 5 S 0 48.3 404
12:22:48 26 1001 221 7 NO 0 46.6 404
12:25:50 26 1002 221 1 NW 0 45.9 407
12:28:47 26 1002 220 3 W 0 45.2 413
12:31:48 26 1002 221 2 NO 0 45.4 419
12:34:49 26 1003 220 2 SO 0 47.8 430
12:37:48 26 1002 220 3 O 0 45.5 444
12:40:48 26 1002 221 4 S 0 47.4 445
12:43:48 26 1001 222 5 NO 0 46.9 454
12:46:48 26 1001 223 3 N 0 45.3 454
12:49:47 26 1002 224 2 S 0 46.2 459
12:52:53 26 1001 225 2 NO 0 46.4 472
12:55:47 27 1001 226 3 SO 0 45.9 471
12:58:47 26 1001 227 6 N 0 44.8 471
13:01:50 27 1001 228 11 SO 0 43.8 475
13:04:47 27 1001 228 6 N 0 44 474
13:07:49 26 1001 196 6 SO 0 42.7 472
13:10:46 26 1000 217 5 N 0 43.1 445
13:13:49 26 1001 224 2 SO 0 45.3 406
13:16:48 27 1001 229 4 NW 0 45.7 404
13:19:47 26 1001 229 5 S 0 44.3 401
13:22:49 27 1001 230 8 N 0 46.7 407
13:25:50 27 1000 230 1 SO 0 44.6 406
13:28:49 28 1001 230 2 O 0 44.3 404
13:31:49 28 1002 230 4 N 0 42.8 404
13:34:49 28 1001 223 2 NO 0 42.3 407
13:37:50 27 1001 230 9 NO 0 41.9 406
13:40:48 27 1002 231 8 0 41.2 404
13:43:48 27 1000 231 4 SO 0 42.4 407
13:46:47 27 1000 231 2 O 0 43.3 404
13:49:48 27 999 232 4 SO 0 44.5 404
13:52:48 27 1000 231 7 NW 0 44.6 412
13:55:45 27 999 231 4 N 0 43.6 413
13:58:47 27 999 232 5 O 0 42.8 413
14:01:50 27 1000 232 3 NW 0 43.8 422
14:04:48 27 999 233 4 S 0 42.9 433
14:07:47 27 1000 233 4 SO 0 42.1 436
14:10:50 28 999 234 5 NO 0 43.2 450
14:13:47 28 999 237 2 N 0 44 451
14:16:48 28 999 236 2 SO 0 42.9 447
14:19:48 28 999 236 7 SO 0 42.1 452
14:22:49 28 999 237 3 N 0 41.6 460
14:25:45 28 999 238 3 N 0 40.5 454
14:28:47 28 999 238 6 O 0 41.9 460
14:31:48 27 998 240 6 SO 0 41 456
14:34:47 27 998 238 9 NO 0 41.3 454
14:37:47 27 999 237 5 S 0 41.3 456
14:40:49 27 999 238 4 SO 0 41.9 459
14:43:48 27 998 238 2 N 0 43 468
14:46:48 27 998 237 2 O 0 43.2 474
14:49:47 27 998 237 9 O 0 43.2 483
14:52:49 27 998 236 6 N 0 42.9 486
14:55:45 27 998 236 2 0 41.8 486
14:58:48 27 998 236 3 SO 0 42.5 480
15:01:47 27 998 237 1 NO 0 44.3 479
15:04:49 28 999 237 2 NO 0 43.6 468
15:07:46 27 998 236 5 O 0 43.1 471
15:10:50 27 998 237 5 NO 0 42.1 469
15:13:48 27 999 238 4 SO 0 43 463
15:16:47 27 998 239 2 O 0 43.3 454
15:19:48 27 998 239 4 SW 0 43.9 457
15:22:49 27 998 239 5 NO 0 41.6 463
15:25:48 27 998 240 6 NO 0 42.1 462
15:28:46 27 998 241 4 O 0 42.3 460
15:31:49 27 998 241 4 N 0 42.6 460
15:34:48 27 998 241 5 NO 0 42.6 456
15:37:48 27 999 241 2 NO 0 41.8 463
15:40:47 28 998 241 3 0 42.6 465
15:43:50 27 998 240 1 S 0 42 455
15:46:46 28 998 240 1 0 42.9 456
15:49:48 28 998 240 4 SO 0 43.5 463
15:52:47 28 998 239 4 SO 0 44.4 471
15:55:49 28 998 241 0 W 0 44 473
15:58:50 28 998 240 4 SO 0 43.3 491
16:01:51 28 998 237 2 SO 0 43.4 495
16:04:48 28 998 233 2 O 0 43.1 503
16:07:49 28 998 227 3 SO 0 42.7 504
16:10:47 28 998 224 2 O 0 42.6 521
16:13:50 27 998 224 0 NW 0 43.8 524
16:16:48 27 998 224 2 O 0 44.6 533
16:19:48 27 998 223 3 NO 0 43.8 536
16:22:48 27 998 222 5 0 42.6 545
16:25:49 27 998 220 10 SO 0 43.2 545
16:28:47 27 998 217 0 S 0 43.8 542
16:31:49 27 998 215 5 SO 0 45.1 575
16:34:47 26 998 212 2 W 0 44.5 575
16:37:48 26 998 209 1 SO 0 45.1 577
16:40:47 26 998 204 0 O 0 44.9 563
16:43:48 26 998 202 4 NO 0 45.6 553
16:46:47 26 998 201 1 NO 0 46.8 565
16:49:47 25 998 200 3 S 0 46.2 585
16:52:46 25 998 196 1 O 0 45.6 577
16:55:50 25 998 190 1 W 0 48.4 565
16:58:48 25 997 185 2 SO 0 48.1 565
17:01:47 25 998 183 4 NO 0 47.8 574
17:04:50 25 998 184 1 NO 0 47.7 574
17:07:49 25 998 187 0 SO 0 48.1 567
17:10:51 24 998 187 1 NW 0 48.9 566
17:13:48 24 998 185 1 N 0 49.2 559
17:16:48 24 998 184 0 NW 0 49.7 550
17:19:48 24 998 181 0 NW 0 51.1 563
17:22:46 24 998 174 0 S 0 51.4 557
17:25:47 24 998 169 2 NO 0 50.2 559
17:28:46 24 997 169 0 N 0 50.4 557
17:31:48 24 998 172 0 NO 0 51.8 553
17:34:50 24 998 176 0 SW 0 52.9 545
17:37:47 23 998 180 0 N 0 53.3 548
17:40:47 23 997 185 1 SO 0 54.2 551
17:43:49 23 998 188 0 NO 0 54.1 553
17:46:48 23 998 191 0 SO 0 54.2 545
17:49:47 23 998 196 0 W 0 54 541
17:52:50 24 998 200 0 SO 0 54.4 545
17:55:49 24 998 202 1 S 0 54.8 547
17:58:49 24 997 205 5 SW 0 54.5 542
18:01:48 24 998 209 4 SO 0 54.4 540
18:04:47 24 998 211 5 O 0 54.8 536
18:07:50 24 998 207 1 SO 0 54.9 536
18:10:48 24 998 202 5 S 0 55 545
18:13:47 24 997 198 1 SO 0 55.1 545
18:16:47 24 998 197 0 SO 0 55.4 547
18:19:48 24 997 198 4 SW 0 55.8 545
18:22:47 24 998 199 1 S 0 56.1 546
18:25:49 24 997 200 0 SO 0 56.6 544
18:28:48 24 998 198 0 S 0 57 547
18:31:50 24 998 195 2 SO 0 56.9 538
18:34:49 24 998 192 1 SW 0 57.1 542
18:37:48 24 998 193 2 SO 0 57.6 527
18:40:50 24 998 196 0 SO 0 58 532
18:43:49 24 998 194 1 SO 0 59.1 527
18:46:50 24 997 195 0 S 0 59.2 536
18:49:49 23 998 194 0 SO 0 60.3 533
18:52:48 23 998 190 2 SO 0 60.7 536
18:55:47 23 998 179 2 SO 0 61 530
18:58:49 23 997 178 1 SO 0 61.9 534
19:01:47 23 998 181 2 SO 0 62.6 533
19:04:50 23 997 182 4 SO 0 64.8 534
19:07:48 22 998 182 4 SO 0 65.8 533
19:10:46 22 998 183 2 S 0 67.7 533
19:13:48 21 998 178 3 SW 0 69.4 539
19:16:51 21 998 174 1 SO 0 72.6 534
19:19:46 21 998 172 1 S 0 77.9 530
19:22:50 21 997 169 1 S 0 78.5 528
19:25:49 21 998 167 11 SO 0 78.8 530
19:28:49 21 998 168 3 SO 0 79.9 533
19:31:50 20 998 163 3 S 0 81.9 529
19:34:46 20 997 150 9 SW 0 82.1 527
19:37:50 20 997 148 12 S 0 83.3 524
19:40:51 20 998 150 8 SO 0 83 519
19:43:47 20 997 153 6 S 0 82.6 518
19:46:50 19 998 159 14 SO 0 83.5 528
19:49:48 19 997 169 2 SO 0 84 530
19:52:47 19 998 170 0 NO 0 84.6 521
19:55:48 19 997 158 3 N 0 85.2 525
19:58:49 19 997 143 0 NO 0 86 518
20:01:49 19 996 129 0 SO 0 86.2 516
20:04:47 19 997 121 0 O 0 86.7 512
20:07:50 19 997 124 0 SO 0 87.2 518
20:10:49 19 997 115 0 O 0 87.5 516
20:13:48 19 996 105 1 SO 0 87.6 518
20:16:50 19 996 105 0 NO 0 87.9 513
20:19:49 19 997 109 0 N 0 88 515
20:22:53 19 996 108 0 NW 0 88.5 519
20:25:49 19 996 100 0 N 0 88.5 518
20:28:51 19 996 86 0 SO 0 89.1 512
20:31:49 18 996 78 0 O 0 89.4 506
20:34:50 18 997 68 2 SO 0 89.6 507
20:37:47 18 996 73 0 O 0 89.7 512
20:40:45 18 997 71 1 S 0 89.9 514
20:43:49 18 997 62 0 S 0 90.6 514
20:46:48 18 997 53 0 S 0 90.9 507
20:49:48 18 996 55 0 NW 0 91.1 503
20:52:48 18 997 57 0 NW 0 91.2 509
20:55:48 18 997 61 2 NW 0 91.5 521
20:58:49 18 997 59 0 NW 0 91.7 524
21:01:48 18 998 56 0 NW 0 92.2 521
21:04:48 18 997 54 0 NW 0 92.6 518
21:07:48 18 997 50 0 NW 0 93.2 521
21:10:49 18 996 48 2 NO 0 93.6 524
21:13:46 18 997 49 1 N 0 93.9 512
21:16:48 18 996 49 0 NW 0 94 510
21:19:48 18 997 42 0 NW 0 94.3 506
21:22:47 18 997 35 0 NW 0 94.2 509
21:25:46 18 997 33 0 O 0 94.2 507
21:28:47 18 996 30 0 O 0 94.4 507
21:31:45 18 997 25 0 O 0 94.6 513
21:34:46 18 996 18 0 O 0 94.8 513
21:37:46 18 996 13 0 O 0 94.8 515
21:40:46 18 996 11 0 O 0 95 519
21:43:47 18 996 8 0 O 0 95.2 521
21:46:45 18 996 6 0 O 0 95.5 515
21:49:46 18 996 4 0 N 0 95.6 512
21:52:46 18 996 3 0 SO 0 95.7 515
21:55:48 18 996 0 0 NO 0 95.9 512
21:58:46 18 996 0 0 NO 0 95.9 515
22:01:48 18 996 0 0 NO 0 95.9 515
22:04:48 18 996 0 0 NO 0 95.9 524
22:07:47 18 995 0 0 S 0 96.1 518
22:10:45 18 996 0 0 S 0 96.2 515
22:13:47 18 996 0 0 S 0 96.4 509
22:16:46 18 996 0 0 S 0 96.4 516
22:19:50 18 996 0 0 NO 0 96.5 515
22:22:48 18 996 0 0 NO 0 96.6 513
22:25:47 18 996 0 0 NO 0 96.6 516
22:28:47 18 996 0 0 NO 0 96.6 507
22:31:47 18 995 0 0 NO 0 96.6 509
22:34:46 18 996 0 0 N 0 96.6 513
22:37:46 18 995 0 3 N 0 96.6 506
22:40:49 18 995 0 2 NO 0 96.6 503
22:43:47 18 996 0 2 NO 0 96.6 509
22:46:48 18 995 0 4 NO 0 96.6 510
22:49:45 18 995 0 2 N 0 96.6 513
22:52:47 18 995 0 3 NO 0 96.6 509
22:55:46 18 995 0 0 O 0 96.6 510
22:58:47 17 995 0 0 O 0 96.6 498
23:01:47 17 995 0 0 O 0 96.6 504
23:04:47 17 996 0 4 SO 0 96.6 508
23:07:48 17 995 0 0 O 0 96.6 501
23:10:47 17 995 0 0 O 0 96.6 504
23:13:46 17 996 0 0 O 0 96.6 493
23:16:49 17 996 0 0 SO 0 96.6 501
23:19:48 17 996 0 2 S 0 96.6 503
23:22:48 17 996 0 0 N 0 96.6 496
23:25:47 17 995 0 0 N 0 96.6 495
23:28:45 17 995 0 0 N 0 96.6 501
23:31:46 17 995 0 2 N 0 96.6 507
23:34:48 17 995 0 0 NO 0 96.6 508
23:37:46 17 995 0 0 NO 0 96.6 501
23:40:48 17 995 0 0 NO 0 96.6 493
23:43:46 17 995 0 1 O 0 96.6 506
23:46:45 17 995 0 2 NO 0 96.6 509
23:49:46 17 995 0 2 N 0 96.6 503
23:52:47 17 995 0 0 NO 0 96.6 501
23:55:48 17 995 0 0 O 0 96.6 492
23:58:47 17 995 0 0 0 96.6 493

Letzte Änderung : 22-Jul-2022
Copyright Jens Köhler, Wolfsburg, Obere Dorfstraße 10d